Overview Statistics Trail Chart Weather Telemetry Raw packets
 

This is the latest recevied weather packets stored in our database for station/object GW4003. If no packets are shown the sender has not sent any weather packets the latest 10 day(s).

<< 90 91 92 93 94 95 96 >>
Time Temp. Humidity Pressure Rain* Wind** Luminosity Snow
1787963796 28.33° C 31% 1020.8 hPa 0 mm - - -
1787963492 28.33° C 30% 1020.8 hPa 0 mm - - -
1787963189 28.33° C 30% 1021.9 hPa 0 mm - - -
1787962885 28.33° C 30% 1021.8 hPa 0 mm - - -
1787962581 28.89° C 36% 1022.4 hPa 0 mm - - -
1787962277 29.44° C 32% 1021.8 hPa 0 mm - - -
1787961974 30° C 27% 1021.5 hPa 0 mm - - -
1787961670 30° C 27% 1021 hPa 0 mm - - -
1787961366 29.44° C 27% 1020.7 hPa 0 mm - - -
1787961063 29.44° C 28% 1020.6 hPa 0 mm - - -
1787960758 29.44° C 29% 1020.6 hPa 0 mm - - -
1787960454 30° C 28% 1020.8 hPa 0 mm - - -
1787960151 30° C 28% 1020.8 hPa 0 mm - - -
1787959846 30.56° C 27% 1021 hPa 0 mm - - -
1787959543 30.56° C 26% 1020.9 hPa 0 mm - - -
1787959239 30.56° C 25% 1020.7 hPa 0 mm - - -
1787958935 31.11° C 25% 1020.6 hPa 0 mm - - -
1787958632 31.11° C 26% 1020.6 hPa 0 mm - - -
1787958328 31.11° C 26% 1020.4 hPa 0 mm - - -
1787958024 31.67° C 25% 1020.4 hPa 0 mm - - -
1787957728 31.67° C 25% 1020.3 hPa 0 mm - - -
1787957417 31.67° C 24% 1020.2 hPa 0 mm - - -
1787957113 31.67° C 24% 1020.1 hPa 0 mm - - -
1787956809 32.22° C 25% 1019.9 hPa 0 mm - - -
1787956506 32.78° C 23% 1020 hPa 0 mm - - -

* Rain latest hour (hover to see other rain measurements)
** Current wind speed in m/s (hover to see current wind gust speed)